Flag for Germany Weather past 2 weeks in Kempten, Bavaria, Germany

Now
29 °F

Overcast.


Feels Like: 29 °F
Forecast: 33 / 37 °F
Wind: 1 mph from South

Location: Kempten

Current Time: Jan 28, 2015 at 6:21:57 AM

Latest Report: Jan 28, 2015 at 6:00 AM


Visibility: 3 mi

Pressure: 30.22 "Hg

Humidity: 96%

Dew point: 28 °F

Location of KemptenLocation

Historic Weather in Kempten — Graph

°F

Kempten temperature yesterday

Maximum temperature yesterday: 34 °F (at 12:00 PM)
Minimum temperature yesterday: 30 °F (at 11:00 PM)
Average temperature yesterday: 32 °F

Past Weeks' High & Low Weather Summary

 TemperatureHumidityPressure
High53 °F (Jan 13, 2:00 PM)99% (Jan 17, 6:00 AM)30.48 "Hg (Jan 17, 6:00 AM)
Low18 °F (Jan 19, 9:00 AM)25% (Jan 13, 1:00 PM)29.70 "Hg (Jan 16, 4:00 PM)
Average32 °F84%30.07 "Hg
* Reported Jan 13 5:00 AM — Jan 28 5:00 AM, Kempten, Weather by CustomWeather, © 2014

Note: Actual official high and low records may vary slightly from our data, if they occured in-between our weather recording intervals... More about our weather records

Advertising

Kempten weather history for previous 24 hours

 ConditionsComfort  
Time TempWeatherWind HumidityBarometerVisibility
5:00 AM
Jan 28
29 °FLight snow. Overcast.1 mph96%30.23 "Hg2 mi
3:00 AM30 °FLight snow. Overcast.1 mph92%30.25 "Hg6 mi
2:00 AM31 °FLight snow. Overcast.3 mph87%30.25 "Hg9 mi
1:00 AM30 °FSnow flurries. Overcast.2 mph90%30.25 "Hg11 mi
12:00 AM31 °FOvercast.2 mph91%30.25 "Hg11 mi
11:00 PM
Jan 27
30 °FLow clouds.1 mph95%30.26 "Hg6 mi
9:00 PM31 °FOvercast.5 mph80%30.26 "Hg19 mi
8:00 PM31 °FLight snow. Overcast.5 mph81%30.25 "Hg9 mi
7:00 PM31 °FLight snow. Overcast.5 mph81%30.24 "Hg11 mi
6:00 PM31 °FLight snow. Ice fog.3 mph84%30.24 "Hg3 mi
5:00 PM32 °FOvercast.2 mph75%30.23 "Hg19 mi
3:00 PM33 °FOvercast.3 mph73%30.22 "Hg19 mi
2:00 PM33 °FOvercast.3 mph78%30.23 "Hg12 mi
1:00 PM33 °FLight snow. Overcast.3 mph73%30.24 "Hg12 mi
12:00 PM34 °FOvercast.5 mph68%30.24 "Hg13 mi
11:00 AM33 °FOvercast.5 mph77%30.24 "Hg16 mi
9:00 AM32 °FOvercast.2 mph84%30.22 "Hg13 mi
8:00 AM32 °FOvercast.3 mph86%30.22 "Hg14 mi
7:00 AM31 °FOvercast.2 mph87%30.21 "Hg18 mi
6:00 AM32 °FOvercast.3 mph88%30.20 "Hg19 mi
Weather by CustomWeather, © 2014

See weather overviewHow to use our weather pages